When you browse on this site, cookies collect data to enhance your experience and personalize the content and advertising you see.
Visit our Privacy Policy to learn more. By continuing to use the site, you agree to this use of cookies and data.
EN

Hourly Weather Tarin Kowt

Today, 8 July, Wednesday

Time Temperature Precipitation Wind Pressure Humidity
00:00 +24°C° 0 mm 1 mps 613 mmHg 18%
01:00 +24°C° 0 mm 1 mps 613 mmHg 19%
02:00 +23°C° 0 mm 1 mps 613 mmHg 20%
03:00 +23°C° 0 mm 1 mps 613 mmHg 20%
04:00 +22°C° 0 mm 1 mps 613 mmHg 21%
05:00 +25°C° 0 mm 1 mps 615 mmHg 19%
06:00 +28°C° 0 mm 1 mps 616 mmHg 17%
07:00 +30°C° 0 mm 2 mps 618 mmHg 15%
08:00 +33°C° 0 mm 3 mps 618 mmHg 14%
09:00 +34°C° 0 mm 4 mps 618 mmHg 13%
10:00 +35°C° 0 mm 6 mps 618 mmHg 12%
11:00 +36°C° 0 mm 6 mps 618 mmHg 12%
12:00 +36°C° 0 mm 7 mps 618 mmHg 11%
13:00 +38°C° 0 mm 7 mps 617 mmHg 11%
14:00 +38°C° 0 mm 8 mps 617 mmHg 10%
15:00 +38°C° 0 mm 8 mps 617 mmHg 10%
16:00 +38°C° 0 mm 8 mps 617 mmHg 10%
17:00 +35°C° 0 mm 7 mps 616 mmHg 11%
18:00 +33°C° 0 mm 6 mps 616 mmHg 11%
19:00 +30°C° 0 mm 5 mps 615 mmHg 12%
20:00 +29°C° 0 mm 4 mps 615 mmHg 13%
21:00 +27°C° 0 mm 3 mps 615 mmHg 14%
22:00 +26°C° 0 mm 2 mps 615 mmHg 15%
23:00 +25°C° 0 mm 2 mps 614 mmHg 15%

Tomorrow, 9 July, Thursday

Time Temperature Precipitation Wind Pressure Humidity
00:00 +24°C° 0 mm 1 mps 614 mmHg 16%
01:00 +23°C° 0 mm 1 mps 613 mmHg 17%
02:00 +22°C° 0 mm 1 mps 613 mmHg 17%
03:00 +21°C° 0 mm 1 mps 612 mmHg 18%
04:00 +20°C° 0 mm 1 mps 612 mmHg 19%
05:00 +23°C° 0 mm 1 mps 613 mmHg 16%
06:00 +23°C° 0 mm 0 mps 614 mmHg 14%
07:00 +26°C° 0 mm 0 mps 615 mmHg 12%
08:00 +30°C° 0 mm 2 mps 615 mmHg 10%
09:00 +33°C° 0 mm 3 mps 616 mmHg 9%
10:00 +34°C° 0 mm 4 mps 616 mmHg 7%
11:00 +35°C° 0 mm 5 mps 616 mmHg 7%
12:00 +36°C° 0 mm 6 mps 615 mmHg 6%
13:00 +38°C° 0 mm 7 mps 615 mmHg 5%
14:00 +38°C° 0 mm 7 mps 615 mmHg 5%
15:00 +38°C° 0 mm 7 mps 615 mmHg 4%
16:00 +38°C° 0 mm 7 mps 614 mmHg 4%
17:00 +35°C° 0 mm 6 mps 614 mmHg 4%
18:00 +32°C° 0 mm 5 mps 613 mmHg 5%
19:00 +29°C° 0 mm 4 mps 612 mmHg 6%
20:00 +27°C° 0 mm 3 mps 612 mmHg 6%
21:00 +25°C° 0 mm 2 mps 612 mmHg 7%
22:00 +24°C° 0 mm 1 mps 611 mmHg 8%
23:00 +23°C° 0 mm 1 mps 611 mmHg 9%

Day after tomorrow, 10 July, Friday

Time Temperature Precipitation Wind Pressure Humidity
00:00 +23°C° 0 mm 1 mps 611 mmHg 10%
01:00 +22°C° 0 mm 1 mps 610 mmHg 10%
02:00 +21°C° 0 mm 2 mps 610 mmHg 12%
03:00 +20°C° 0 mm 2 mps 610 mmHg 14%
04:00 +20°C° 0 mm 2 mps 610 mmHg 16%
05:00 +23°C° 0 mm 2 mps 611 mmHg 15%
06:00 +25°C° 0 mm 2 mps 612 mmHg 14%
07:00 +27°C° 0 mm 2 mps 613 mmHg 14%
08:00 +29°C° 0 mm 2 mps 614 mmHg 13%
09:00 +30°C° 0 mm 2 mps 614 mmHg 12%
10:00 +32°C° 0 mm 2 mps 615 mmHg 11%
11:00 +34°C° 0 mm 2 mps 614 mmHg 10%
12:00 +36°C° 0 mm 2 mps 614 mmHg 9%
13:00 +37°C° 0 mm 2 mps 614 mmHg 8%
14:00 +37°C° 0 mm 2 mps 614 mmHg 8%
15:00 +37°C° 0 mm 2 mps 613 mmHg 7%
16:00 +38°C° 0 mm 2 mps 613 mmHg 7%
17:00 +35°C° 0 mm 2 mps 612 mmHg 9%
18:00 +31°C° 0 mm 1 mps 612 mmHg 11%
19:00 +28°C° 0 mm 1 mps 611 mmHg 12%
20:00 +28°C° 0 mm 1 mps 611 mmHg 13%
21:00 +27°C° 0 mm 2 mps 611 mmHg 14%
22:00 +26°C° 0 mm 2 mps 611 mmHg 15%
23:00 +25°C° 0 mm 2 mps 611 mmHg 17%

11 July, Saturday

Time Temperature Precipitation Wind Pressure Humidity
00:00 +24°C° 0 mm 2 mps 611 mmHg 19%
01:00 +22°C° 0 mm 3 mps 610 mmHg 21%
02:00 +22°C° 0 mm 3 mps 610 mmHg 22%
03:00 +21°C° 0 mm 3 mps 610 mmHg 22%
04:00 +20°C° 0 mm 3 mps 610 mmHg 23%
05:00 +22°C° 0 mm 3 mps 611 mmHg 21%
06:00 +25°C° 0 mm 4 mps 612 mmHg 19%
07:00 +26°C° 0 mm 4 mps 612 mmHg 17%
08:00 +28°C° 0 mm 4 mps 613 mmHg 15%
09:00 +30°C° 0 mm 5 mps 613 mmHg 13%
10:00 +33°C° 0 mm 5 mps 613 mmHg 11%
11:00 +34°C° 0 mm 5 mps 613 mmHg 10%
12:00 +36°C° 0 mm 4 mps 613 mmHg 9%
13:00 +37°C° 0 mm 4 mps 613 mmHg 8%
14:00 +37°C° 0 mm 4 mps 612 mmHg 8%
15:00 +37°C° 0 mm 3 mps 612 mmHg 7%
16:00 +38°C° 0 mm 3 mps 611 mmHg 7%
17:00 +35°C° 0 mm 3 mps 611 mmHg 9%
18:00 +33°C° 0 mm 3 mps 610 mmHg 11%
19:00 +30°C° 0 mm 4 mps 610 mmHg 14%
20:00 +28°C° 0 mm 3 mps 610 mmHg 15%
21:00 +27°C° 0 mm 3 mps 610 mmHg 17%
22:00 +25°C° 0 mm 2 mps 610 mmHg 19%
23:00 +24°C° 0 mm 2 mps 610 mmHg 20%

12 July, Sunday

Time Temperature Precipitation Wind Pressure Humidity
00:00 +22°C° 0 mm 3 mps 609 mmHg 21%
01:00 +21°C° 0 mm 3 mps 609 mmHg 22%
02:00 +21°C° 0 mm 3 mps 609 mmHg 23%
03:00 +20°C° 0 mm 3 mps 608 mmHg 24%
04:00 +19°C° 0 mm 3 mps 608 mmHg 25%
05:00 +21°C° 0 mm 3 mps 609 mmHg 23%
06:00 +23°C° 0 mm 4 mps 610 mmHg 21%
07:00 +25°C° 0 mm 4 mps 611 mmHg 19%
08:00 +27°C° 0 mm 4 mps 611 mmHg 17%
09:00 +29°C° 0 mm 3 mps 612 mmHg 15%
10:00 +31°C° 0 mm 3 mps 612 mmHg 14%
11:00 +34°C° 0 mm 3 mps 612 mmHg 12%
12:00 +35°C° 0 mm 2 mps 612 mmHg 11%
13:00 +36°C° 0 mm 2 mps 612 mmHg 10%
14:00 +37°C° 0 mm 3 mps 612 mmHg 9%
15:00 +37°C° 0 mm 4 mps 612 mmHg 9%
16:00 +37°C° 0 mm 5 mps 612 mmHg 8%
17:00 +34°C° 0 mm 3 mps 611 mmHg 10%
18:00 +31°C° 0 mm 2 mps 611 mmHg 11%
19:00 +28°C° 0 mm 1 mps 610 mmHg 13%
20:00 +27°C° 0 mm 1 mps 610 mmHg 14%
21:00 +26°C° 0 mm 1 mps 610 mmHg 15%
22:00 +25°C° 0 mm 1 mps 610 mmHg 16%
23:00 +24°C° 0 mm 1 mps 610 mmHg 17%

13 July, Monday

Time Temperature Precipitation Wind Pressure Humidity
00:00 +23°C° 0 mm 2 mps 610 mmHg 19%
01:00 +23°C° 0 mm 2 mps 610 mmHg 20%
02:00 +21°C° 0 mm 2 mps 610 mmHg 22%
03:00 +21°C° 0 mm 2 mps 610 mmHg 24%
04:00 +20°C° 0 mm 2 mps 610 mmHg 25%
05:00 +23°C° 0 mm 2 mps 611 mmHg 23%
06:00 +25°C° 0 mm 2 mps 612 mmHg 22%
07:00 +28°C° 0 mm 3 mps 613 mmHg 20%
08:00 +29°C° 0 mm 3 mps 613 mmHg 18%
09:00 +31°C° 0 mm 3 mps 614 mmHg 16%
10:00 +34°C° 0 mm 3 mps 614 mmHg 14%
11:00 +35°C° 0 mm 4 mps 614 mmHg 13%
12:00 +36°C° 0 mm 5 mps 614 mmHg 11%
13:00 +39°C° 0 mm 6 mps 614 mmHg 10%
14:00 +39°C° 0 mm 6 mps 614 mmHg 9%
15:00 +39°C° 0 mm 6 mps 613 mmHg 7%
16:00 +39°C° 0 mm 6 mps 613 mmHg 6%
17:00 +35°C° 0 mm 6 mps 612 mmHg 8%
18:00 +33°C° 0 mm 5 mps 612 mmHg 9%
19:00 +29°C° 0 mm 4 mps 611 mmHg 11%
20:00 +28°C° 0 mm 3 mps 611 mmHg 12%
21:00 +26°C° 0 mm 2 mps 611 mmHg 14%
22:00 +22°C° 0 mm 0 mps 611 mmHg 16%
23:00 +24°C° 0 mm 1 mps 611 mmHg 18%
Show more